Weather History for Rockport, TX

Change the Weather History Date:

Tuesday, February 19, 2013

  Actual Average Record
Temperature  
Mean Temperature 63 °F -  
Max Temperature 66 °F 67 °F 90 °F (1986)
Min Temperature 60 °F 50 °F 32 °F (1978)
Degree Days  
Heating Degree Days 2    
Growing Degree Days 13 (Base 50)    
Moisture  
Dew Point 49 °F    
Average Humidity 63    
Maximum Humidity 90    
Minimum Humidity 46    
Precipitation  
Precipitation 0.00 in - - ()
Sea Level Pressure  
Sea Level Pressure 30.13 in    
Wind  
Wind Speed 14 mph (ENE)    
Max Wind Speed 21 mph    
Max Gust Speed 29 mph    
Visibility 10 miles    
Events      
Averages and records for this station are not official NWS values.
T = Trace of Precipitation, MM = Missing Value Source: NWS Daily Summary

Daily Weather History Graph

Daily Weather History Graph

Search for Another Location

Airport:

Trip Planner

Search our weather history database for the weather conditions in past years. The results will help you decide how hot, cold, wet, or windy it might be!

Date:

Astronomy

Feb. 19, 2013 Rise Set
Actual Time 7:02 AM CST 6:22 PM CST
Civil Twilight 6:38 AM CST 6:46 PM CST
Nautical Twilight 6:10 AM CST 7:13 PM CST
Astronomical Twilight 5:43 AM CST 7:40 PM CST
Moon 1:09 PM CST (2/19) 2:20 AM CST (2/19)
Length of Visible Light 12h 07m
Length of Day
11h 19m
Waxing Gibbous, 67% of the Moon is Illuminated
Feb 19
Waxing Gibbous
Feb 25
Full
Mar 4
Last Quarter
Mar 11
New
Mar 19
First Quarter

Hourly Weather History & Observations

Time (CST) Temp. Dew Point Humidity Pressure Visibility Wind Dir Wind Speed Gust Speed Precip Events Conditions
12:53 AM 64.9 °F 62.1 °F 90% 30.01 in 7.0 mi South 4.6 mph - N/A   Clear
1:37 AM 66.2 °F 62.6 °F 88% 30.04 in 8.0 mi South 9.2 mph 20.7 mph N/A   Partly Cloudy
2:00 AM 66.2 °F 62.6 °F 88% 30.06 in 9.0 mi North 11.5 mph - N/A   Overcast
2:53 AM 63.0 °F 42.1 °F 46% 30.09 in 10.0 mi NE 17.3 mph 28.8 mph N/A   Overcast
3:53 AM 61.0 °F 42.1 °F 50% 30.10 in 10.0 mi NE 13.8 mph 21.9 mph N/A   Mostly Cloudy
4:53 AM 61.0 °F 42.1 °F 50% 30.12 in 10.0 mi NE 12.7 mph 19.6 mph N/A   Overcast
5:53 AM 61.0 °F 39.9 °F 46% 30.13 in 10.0 mi NE 16.1 mph - N/A   Overcast
6:53 AM 60.1 °F 41.0 °F 49% 30.16 in 10.0 mi NE 20.7 mph 26.5 mph N/A   Overcast
7:53 AM 60.1 °F 42.1 °F 51% 30.19 in 10.0 mi ENE 18.4 mph 23.0 mph N/A   Overcast
8:53 AM 61.0 °F 42.1 °F 50% 30.21 in 10.0 mi ENE 19.6 mph 25.3 mph N/A   Overcast
9:53 AM 62.1 °F 43.0 °F 50% 30.22 in 10.0 mi NE 20.7 mph 27.6 mph N/A   Overcast
10:53 AM 64.0 °F 45.0 °F 50% 30.22 in 10.0 mi ENE 18.4 mph 24.2 mph N/A   Overcast
12:53 PM 64.0 °F 48.0 °F 56% 30.20 in 10.0 mi East 17.3 mph - N/A   Overcast
1:53 PM 66.0 °F 48.9 °F 54% 30.18 in 10.0 mi East 17.3 mph - N/A   Overcast
2:53 PM 66.9 °F 48.9 °F 52% 30.16 in 10.0 mi East 18.4 mph - N/A   Scattered Clouds
3:53 PM 66.0 °F 51.1 °F 59% 30.13 in 10.0 mi East 18.4 mph - N/A   Clear
4:53 PM 64.0 °F 52.0 °F 65% 30.12 in 10.0 mi East 17.3 mph 24.2 mph N/A   Clear
6:53 PM 61.0 °F 53.1 °F 75% 30.12 in 10.0 mi East 19.6 mph 26.5 mph N/A   Clear
7:53 PM 60.1 °F 53.1 °F 78% 30.12 in 10.0 mi East 18.4 mph 26.5 mph N/A   Clear
8:53 PM 60.1 °F 53.1 °F 78% 30.11 in 10.0 mi East 17.3 mph - N/A   Scattered Clouds
9:53 PM 61.0 °F 53.1 °F 75% 30.12 in 10.0 mi East 16.1 mph - N/A   Clear
10:53 PM 61.0 °F 54.0 °F 78% 30.09 in 10.0 mi East 17.3 mph - N/A   Clear
11:53 PM 62.1 °F 55.0 °F 78% 30.05 in 10.0 mi East 17.3 mph - N/A   Clear